Location: Newark
(9.4667°S, 159.8167°E)
Time: 03:02:16
(UTC+00:00)

Explorer 7 - Pass Details

Date: 18 November 2019
Orbit: 485 x 680 km, 50.3° (Epoch: 05 December)

Event Time Altitude Azimuth Distance (km) Brightness Sun altitude
Rises 09:53:54 0° 215° (SW) 3,009 11.4 -34.7°
Reaches altitude 10° 09:56:15 10° 214° (SW) 2,106 10.4 -35.2°
Enters shadow 09:57:56 21° 211° (SSW) 1,486 9.5 -35.6°
